Вернуться в каталог

STARLINK-34459

АктивенСвязьVLEO
NORAD 64449·PAYLOAD·🇺🇸 United States

Запущен Jun 18, 2025 с Cape Canaveral Space Force Station

Loading…

Ближайшие Пролёты (ближайшие 24 часа)

TLE

СвежийSource: CelesTrak SupGP

Эпоха: Sep 15, 2026, 03:41 UTC

1 64449C 25130M   26258.15395833 -.00012573  00000+0 -37137-3 0  2589
2 64449  53.1570 284.9252 0001342  85.5167 188.4213 15.34404439    19

Отслеживайте STARLINK-34459 в реальном времени с AllMySat

Download on the App Store